Time,TemperatureF,DewpointF,PressureIn,WindDirection,WindDirectionDegrees,WindSpeedMPH,WindSpeedGustMPH,Humidity,HourlyPrecipIn,Conditions,Clouds,dailyrainin,SoftwareType,DateUTC
2013-01-12 00:00:00,36.3,34.2,30.13,ESE,112,2.3,2.3,92,0.02,CLR,,0.12,WeatherDisplay:10.37,2013-01-12 05:00:00,
2013-01-12 00:01:00,36.3,34.2,30.13,ESE,112,2.3,2.3,92,0.02,RA,,0.00,WeatherDisplay:10.37,2013-01-12 05:01:00,
2013-01-12 00:03:00,36.3,34.2,30.13,ESE,112,2.3,2.3,92,0.02,RA,,0.00,WeatherDisplay:10.37,2013-01-12 05:03:00,
2013-01-12 00:08:00,36.3,34.2,30.13,SE,135,2.3,2.3,92,0.03,RA,,0.01,WeatherDisplay:10.37,2013-01-12 05:08:00,
2013-01-12 00:13:00,36.3,34.2,30.12,ESE,112,2.3,2.3,92,0.02,RA,,0.01,WeatherDisplay:10.37,2013-01-12 05:13:00,
2013-01-12 00:18:00,36.5,34.4,30.12,ESE,112,2.3,2.6,92,0.02,CLR,,0.01,WeatherDisplay:10.37,2013-01-12 05:18:00,
2013-01-12 00:23:00,36.5,34.4,30.12,South,180,2.3,2.3,92,0.02,CLR,,0.01,WeatherDisplay:10.37,2013-01-12 05:23:00,
2013-01-12 00:28:00,36.5,34.4,30.12,South,180,3.2,3.2,92,0.01,CLR,,0.01,WeatherDisplay:10.37,2013-01-12 05:28:00,
2013-01-12 00:33:00,36.5,34.4,30.12,East,90,0.0,0.0,92,0.01,CLR,,0.01,WeatherDisplay:10.37,2013-01-12 05:33:00,
2013-01-12 00:38:00,36.7,34.6,30.12,SSE,158,0.0,0.0,92,0.01,CLR,,0.01,WeatherDisplay:10.37,2013-01-12 05:38:00,
2013-01-12 00:43:00,36.7,34.6,30.12,SE,135,3.5,3.5,92,0.01,CLR,,0.01,WeatherDisplay:10.37,2013-01-12 05:43:00,
2013-01-12 00:48:00,36.7,34.6,30.12,East,90,2.3,2.3,92,0.01,CLR,,0.01,WeatherDisplay:10.37,2013-01-12 05:48:00,
2013-01-12 00:53:00,36.9,34.8,30.11,ESE,112,3.5,3.5,92,0.01,CLR,,0.01,WeatherDisplay:10.37,2013-01-12 05:53:00,
2013-01-12 00:58:00,37.0,34.9,30.11,South,180,2.3,2.3,92,0.01,CLR,,0.01,WeatherDisplay:10.37,2013-01-12 05:58:00,
2013-01-12 01:03:00,37.0,34.9,30.11,SSE,158,2.3,2.3,92,0.01,CLR,,0.01,WeatherDisplay:10.37,2013-01-12 06:03:00,
2013-01-12 01:08:00,37.0,34.9,30.11,ENE,68,2.3,2.3,92,0.00,CLR,,0.01,WeatherDisplay:10.37,2013-01-12 06:08:00,
2013-01-12 01:13:00,37.2,35.1,30.11,SSE,158,3.5,3.5,92,0.00,CLR,,0.01,WeatherDisplay:10.37,2013-01-12 06:13:00,
2013-01-12 01:18:00,37.2,35.4,30.11,West,270,1.1,1.1,93,0.00,CLR,,0.01,WeatherDisplay:10.37,2013-01-12 06:18:00,
2013-01-12 01:24:00,37.2,35.4,30.11,NE,45,0.0,0.0,93,0.00,CLR,,0.01,WeatherDisplay:10.37,2013-01-12 06:24:00,
2013-01-12 01:29:00,37.6,35.8,30.11,ESE,112,3.5,3.5,93,0.00,CLR,,0.01,WeatherDisplay:10.37,2013-01-12 06:29:00,
2013-01-12 01:34:00,37.4,35.6,30.11,South,180,1.7,1.7,93,0.00,CLR,,0.01,WeatherDisplay:10.37,2013-01-12 06:34:00,
2013-01-12 01:39:00,37.4,35.6,30.11,South,180,2.3,2.3,93,0.00,CLR,,0.01,WeatherDisplay:10.37,2013-01-12 06:39:00,
2013-01-12 01:44:00,37.4,35.6,30.11,SSE,158,0.0,0.0,93,0.00,CLR,,0.01,WeatherDisplay:10.37,2013-01-12 06:44:00,
2013-01-12 01:49:00,37.4,35.6,30.11,ESE,112,0.0,0.0,93,0.00,CLR,,0.01,WeatherDisplay:10.37,2013-01-12 06:49:00,
2013-01-12 01:54:00,37.4,35.6,30.11,ESE,112,2.3,2.3,93,0.00,CLR,,0.01,WeatherDisplay:10.37,2013-01-12 06:54:00,
2013-01-12 01:59:00,37.4,35.6,30.11,SE,135,1.7,1.7,93,0.00,CLR,,0.01,WeatherDisplay:10.37,2013-01-12 06:59:00,
2013-01-12 02:04:00,37.4,35.6,30.10,ESE,112,2.3,2.3,93,0.00,CLR,,0.01,WeatherDisplay:10.37,2013-01-12 07:04:00,
2013-01-12 02:09:00,37.4,35.6,30.10,ESE,112,2.3,2.3,93,0.00,CLR,,0.01,WeatherDisplay:10.37,2013-01-12 07:09:00,
2013-01-12 02:14:00,37.4,35.6,30.10,SE,135,3.5,3.5,93,0.00,CLR,,0.01,WeatherDisplay:10.37,2013-01-12 07:14:00,
2013-01-12 02:19:00,37.6,35.8,30.10,ESE,112,2.7,2.7,93,0.00,CLR,,0.01,WeatherDisplay:10.37,2013-01-12 07:19:00,
2013-01-12 02:24:00,37.8,36.0,30.10,ESE,112,2.3,2.3,93,0.00,CLR,,0.01,WeatherDisplay:10.37,2013-01-12 07:24:00,
2013-01-12 02:29:00,37.8,36.0,30.10,SE,135,2.3,2.3,93,0.00,CLR,,0.01,WeatherDisplay:10.37,2013-01-12 07:29:00,
2013-01-12 02:34:00,37.8,36.0,30.10,ESE,112,2.3,2.6,93,0.00,CLR,,0.01,WeatherDisplay:10.37,2013-01-12 07:34:00,
2013-01-12 02:39:00,37.8,36.0,30.10,ESE,112,2.3,2.3,93,0.00,CLR,,0.01,WeatherDisplay:10.37,2013-01-12 07:39:00,
2013-01-12 02:44:00,37.8,36.0,30.10,ESE,112,2.3,2.3,93,0.00,CLR,,0.01,WeatherDisplay:10.37,2013-01-12 07:44:00,
2013-01-12 02:49:00,37.8,36.0,30.09,ESE,112,2.3,2.3,93,0.00,CLR,,0.01,WeatherDisplay:10.37,2013-01-12 07:49:00,
2013-01-12 02:54:00,37.8,36.0,30.09,SE,135,2.3,2.3,93,0.00,CLR,,0.01,WeatherDisplay:10.37,2013-01-12 07:54:00,
2013-01-12 02:59:00,37.8,36.0,30.09,SE,135,1.1,1.2,93,0.00,CLR,,0.01,WeatherDisplay:10.37,2013-01-12 07:59:00,
2013-01-12 03:04:00,37.8,36.0,30.09,ESE,112,1.1,1.3,93,0.00,CLR,,0.01,WeatherDisplay:10.37,2013-01-12 08:04:00,
2013-01-12 03:09:00,37.8,36.0,30.09,ESE,112,1.7,1.7,93,0.00,CLR,,0.01,WeatherDisplay:10.37,2013-01-12 08:09:00,
2013-01-12 03:14:00,37.8,36.0,30.09,ESE,112,2.7,2.7,93,0.00,CLR,,0.01,WeatherDisplay:10.37,2013-01-12 08:14:00,
2013-01-12 03:19:00,37.8,36.0,30.09,ESE,112,2.3,2.3,93,0.00,CLR,,0.01,WeatherDisplay:10.37,2013-01-12 08:19:00,
2013-01-12 03:24:00,37.8,36.0,30.09,ESE,112,2.7,2.7,93,0.01,RA,,0.02,WeatherDisplay:10.37,2013-01-12 08:24:00,
2013-01-12 03:29:00,37.8,36.0,30.08,ESE,112,2.7,2.7,93,0.01,RA,,0.02,WeatherDisplay:10.37,2013-01-12 08:29:00,
2013-01-12 03:34:00,37.8,36.0,30.08,ESE,112,2.3,2.3,93,0.01,CLR,,0.02,WeatherDisplay:10.37,2013-01-12 08:34:00,
2013-01-12 03:39:00,37.8,36.0,30.07,ESE,112,2.3,2.3,93,0.01,CLR,,0.02,WeatherDisplay:10.37,2013-01-12 08:39:00,
2013-01-12 03:44:00,37.8,36.0,30.07,East,90,1.7,1.7,93,0.01,CLR,,0.02,WeatherDisplay:10.37,2013-01-12 08:44:00,
2013-01-12 03:49:00,37.8,36.0,30.07,East,90,2.3,2.3,93,0.01,CLR,,0.02,WeatherDisplay:10.37,2013-01-12 08:49:00,
2013-01-12 03:54:00,37.9,36.1,30.08,SE,135,1.1,1.1,93,0.01,CLR,,0.02,WeatherDisplay:10.37,2013-01-12 08:54:00,
2013-01-12 03:59:00,37.8,36.0,30.08,South,180,1.1,0.0,93,0.01,CLR,,0.02,WeatherDisplay:10.37,2013-01-12 08:59:00,
2013-01-12 04:04:00,37.8,36.0,30.08,South,180,1.1,1.1,93,0.01,CLR,,0.02,WeatherDisplay:10.37,2013-01-12 09:04:00,
2013-01-12 04:09:00,37.8,36.0,30.08,SSE,158,1.1,1.1,93,0.01,CLR,,0.02,WeatherDisplay:10.37,2013-01-12 09:09:00,
2013-01-12 04:14:00,37.9,36.1,30.07,South,180,2.3,2.3,93,0.01,CLR,,0.02,WeatherDisplay:10.37,2013-01-12 09:14:00,
2013-01-12 04:19:00,37.9,36.1,30.07,ESE,112,2.3,2.3,93,0.01,CLR,,0.02,WeatherDisplay:10.37,2013-01-12 09:19:00,
2013-01-12 04:24:00,37.9,36.1,30.07,ESE,112,0.0,0.0,93,0.00,CLR,,0.02,WeatherDisplay:10.37,2013-01-12 09:24:00,
2013-01-12 04:29:00,37.9,36.1,30.07,ESE,112,0.0,0.0,93,0.00,CLR,,0.02,WeatherDisplay:10.37,2013-01-12 09:29:00,
2013-01-12 04:34:00,37.9,36.1,30.07,ESE,112,0.0,0.0,93,0.00,CLR,,0.02,WeatherDisplay:10.37,2013-01-12 09:34:00,
2013-01-12 04:39:00,37.9,36.1,30.07,ESE,112,0.0,0.0,93,0.00,CLR,,0.02,WeatherDisplay:10.37,2013-01-12 09:39:00,
2013-01-12 04:44:00,37.9,36.1,30.07,East,90,0.0,0.0,93,0.00,CLR,,0.02,WeatherDisplay:10.37,2013-01-12 09:44:00,
2013-01-12 04:49:00,37.9,36.1,30.06,ESE,112,0.0,0.0,93,0.00,CLR,,0.02,WeatherDisplay:10.37,2013-01-12 09:49:00,
2013-01-12 04:54:00,37.9,36.1,30.06,ENE,68,0.0,0.0,93,0.00,CLR,,0.02,WeatherDisplay:10.37,2013-01-12 09:54:00,
2013-01-12 04:59:00,37.8,36.0,30.06,South,180,0.0,0.0,93,0.00,CLR,,0.02,WeatherDisplay:10.37,2013-01-12 09:59:00,
2013-01-12 05:04:00,37.8,36.0,30.07,NE,45,0.0,0.0,93,0.00,CLR,,0.02,WeatherDisplay:10.37,2013-01-12 10:04:00,
2013-01-12 05:09:00,37.8,36.0,30.07,WNW,292,0.0,0.0,93,0.00,CLR,,0.02,WeatherDisplay:10.37,2013-01-12 10:09:00,
2013-01-12 05:14:00,37.6,35.8,30.07,NW,315,0.0,0.0,93,0.00,CLR,,0.02,WeatherDisplay:10.37,2013-01-12 10:14:00,
2013-01-12 05:19:00,37.4,35.6,30.07,NW,315,0.0,0.0,93,0.00,CLR,,0.02,WeatherDisplay:10.37,2013-01-12 10:19:00,
2013-01-12 05:24:00,37.4,35.8,30.07,NW,315,0.0,0.0,94,0.00,CLR,,0.02,WeatherDisplay:10.37,2013-01-12 10:24:00,
2013-01-12 05:29:00,37.2,35.6,30.09,NE,45,0.0,0.0,94,0.00,CLR,,0.02,WeatherDisplay:10.37,2013-01-12 10:29:00,
2013-01-12 05:34:00,37.2,35.6,30.09,NNW,338,0.0,0.0,94,0.00,CLR,,0.02,WeatherDisplay:10.37,2013-01-12 10:34:00,
2013-01-12 05:39:00,36.9,35.3,30.09,WNW,292,0.0,0.0,94,0.00,CLR,,0.02,WeatherDisplay:10.37,2013-01-12 10:39:00,
2013-01-12 05:44:00,36.7,35.1,30.09,NE,45,0.0,0.0,94,0.00,CLR,,0.02,WeatherDisplay:10.37,2013-01-12 10:44:00,
2013-01-12 05:49:00,36.7,35.1,30.08,ESE,112,0.0,0.0,94,0.00,CLR,,0.02,WeatherDisplay:10.37,2013-01-12 10:49:00,
2013-01-12 05:54:00,36.7,35.1,30.08,East,90,0.0,0.0,94,0.00,CLR,,0.02,WeatherDisplay:10.37,2013-01-12 10:54:00,
2013-01-12 05:59:00,36.7,35.1,30.08,ESE,112,0.0,0.0,94,0.00,CLR,,0.02,WeatherDisplay:10.37,2013-01-12 10:59:00,
2013-01-12 06:04:00,36.7,35.1,30.06,East,90,0.0,0.0,94,0.00,CLR,,0.02,WeatherDisplay:10.37,2013-01-12 11:04:00,
2013-01-12 06:09:00,36.7,35.1,30.06,ESE,112,0.0,0.0,94,0.00,CLR,,0.02,WeatherDisplay:10.37,2013-01-12 11:09:00,
2013-01-12 06:14:00,36.7,35.1,30.07,NNW,338,0.0,0.0,94,0.00,CLR,,0.02,WeatherDisplay:10.37,2013-01-12 11:14:00,
2013-01-12 06:19:00,36.7,35.1,30.07,NNW,338,0.0,0.0,94,0.00,CLR,,0.02,WeatherDisplay:10.37,2013-01-12 11:19:00,
2013-01-12 06:24:00,36.7,35.1,30.07,NNW,338,0.0,0.0,94,0.00,CLR,,0.02,WeatherDisplay:10.37,2013-01-12 11:24:00,
2013-01-12 06:29:00,36.7,35.1,30.07,NNW,338,0.0,0.0,94,0.00,CLR,,0.02,WeatherDisplay:10.37,2013-01-12 11:29:00,
2013-01-12 06:34:00,36.7,35.1,30.07,NW,315,0.0,0.0,94,0.00,CLR,,0.02,WeatherDisplay:10.37,2013-01-12 11:34:00,
2013-01-12 06:39:00,36.7,35.1,30.08,NNE,22,0.0,0.0,94,0.00,CLR,,0.02,WeatherDisplay:10.37,2013-01-12 11:39:00,
2013-01-12 06:44:00,36.5,34.9,30.08,SE,135,0.0,0.0,94,0.00,CLR,,0.02,WeatherDisplay:10.37,2013-01-12 11:44:00,
2013-01-12 06:49:00,36.5,34.9,30.07,WSW,248,0.0,0.0,94,0.00,CLR,,0.02,WeatherDisplay:10.37,2013-01-12 11:49:00,
2013-01-12 06:54:00,36.5,34.9,30.07,NW,315,0.0,0.0,94,0.00,CLR,,0.02,WeatherDisplay:10.37,2013-01-12 11:54:00,
2013-01-12 06:59:00,36.5,34.9,30.07,WNW,292,0.0,0.0,94,0.00,CLR,,0.02,WeatherDisplay:10.37,2013-01-12 11:59:00,
2013-01-12 07:04:00,36.5,34.9,30.08,WNW,292,0.0,0.0,94,0.00,CLR,,0.02,WeatherDisplay:10.37,2013-01-12 12:04:00,
2013-01-12 07:09:00,36.5,34.9,30.08,ENE,68,0.0,0.0,94,0.00,CLR,,0.02,WeatherDisplay:10.37,2013-01-12 12:09:00,
2013-01-12 07:14:00,36.3,34.7,30.08,NNW,338,0.0,0.0,94,0.00,CLR,,0.02,WeatherDisplay:10.37,2013-01-12 12:14:00,
2013-01-12 07:20:00,36.3,34.7,30.08,NNW,338,0.0,0.0,94,0.00,CLR,,0.02,WeatherDisplay:10.37,2013-01-12 12:20:00,
2013-01-12 07:25:00,36.3,34.7,30.08,NW,316,0.0,0.0,94,0.00,CLR,,0.02,WeatherDisplay:10.37,2013-01-12 12:25:00,
2013-01-12 07:30:00,36.3,34.7,30.08,NNW,331,0.0,0.0,94,0.00,CLR,,0.02,WeatherDisplay:10.37,2013-01-12 12:30:00,
2013-01-12 07:35:00,36.3,34.7,30.08,NNE,22,0.0,0.0,94,0.00,CLR,,0.02,WeatherDisplay:10.37,2013-01-12 12:35:00,
2013-01-12 07:40:00,36.3,34.7,30.09,North,2,0.0,0.0,94,0.00,CLR,,0.02,WeatherDisplay:10.37,2013-01-12 12:40:00,
2013-01-12 07:45:00,36.3,34.7,30.09,NE,45,0.0,0.0,94,0.00,CLR,,0.02,WeatherDisplay:10.37,2013-01-12 12:45:00,
2013-01-12 07:50:00,36.3,34.7,30.09,West,270,0.0,0.0,94,0.00,CLR,,0.02,WeatherDisplay:10.37,2013-01-12 12:50:00,
2013-01-12 07:55:00,36.3,34.7,30.09,WNW,292,0.0,0.0,94,0.00,CLR,,0.02,WeatherDisplay:10.37,2013-01-12 12:55:00,
2013-01-12 08:00:00,36.3,34.7,30.09,NW,325,0.0,0.0,94,0.00,CLR,,0.02,WeatherDisplay:10.37,2013-01-12 13:00:00,
2013-01-12 08:05:00,36.3,34.7,30.10,NNE,22,0.0,0.0,94,0.00,CLR,,0.02,WeatherDisplay:10.37,2013-01-12 13:05:00,
2013-01-12 08:10:00,36.3,34.8,30.10,NE,50,0.0,0.0,94,0.00,CLR,,0.02,WeatherDisplay:10.37,2013-01-12 13:10:00,
2013-01-12 08:15:00,36.5,34.9,30.09,WNW,292,0.0,0.0,94,0.00,CLR,,0.02,WeatherDisplay:10.37,2013-01-12 13:15:00,
2013-01-12 08:20:00,36.5,34.9,30.09,NNE,20,0.0,0.0,94,0.00,CLR,,0.02,WeatherDisplay:10.37,2013-01-12 13:20:00,
2013-01-12 08:25:00,36.7,35.1,30.09,ENE,62,0.0,0.0,94,0.00,CLR,,0.02,WeatherDisplay:10.37,2013-01-12 13:25:00,
2013-01-12 08:30:00,37.0,35.4,30.08,WNW,292,0.0,0.0,94,0.00,CLR,,0.02,WeatherDisplay:10.37,2013-01-12 13:30:00,
2013-01-12 08:35:00,37.0,35.4,30.08,WNW,292,0.0,0.0,94,0.00,CLR,,0.02,WeatherDisplay:10.37,2013-01-12 13:35:00,
2013-01-12 08:40:00,37.2,35.6,30.10,NNW,329,0.0,0.0,94,0.00,CLR,,0.02,WeatherDisplay:10.37,2013-01-12 13:40:00,
2013-01-12 08:45:00,37.2,35.6,30.10,West,270,0.0,0.0,94,0.00,CLR,,0.02,WeatherDisplay:10.37,2013-01-12 13:45:00,
2013-01-12 08:50:00,37.2,35.6,30.11,NNW,330,0.0,0.0,94,0.00,CLR,,0.02,WeatherDisplay:10.37,2013-01-12 13:50:00,
2013-01-12 08:55:00,37.4,35.8,30.11,NNE,31,0.0,0.0,94,0.00,CLR,,0.02,WeatherDisplay:10.37,2013-01-12 13:55:00,
2013-01-12 09:00:00,37.6,36.0,30.11,NNE,33,0.0,0.0,94,0.00,CLR,,0.02,WeatherDisplay:10.37,2013-01-12 14:00:00,
2013-01-12 09:05:00,37.6,36.0,30.11,East,88,0.0,0.0,94,0.00,CLR,,0.02,WeatherDisplay:10.37,2013-01-12 14:05:00,
2013-01-12 09:10:00,37.9,36.3,30.11,East,90,0.0,0.0,94,0.00,CLR,,0.02,WeatherDisplay:10.37,2013-01-12 14:10:00,
2013-01-12 09:15:00,38.1,36.5,30.10,NNE,22,0.0,0.0,94,0.00,CLR,,0.02,WeatherDisplay:10.37,2013-01-12 14:15:00,
2013-01-12 09:20:00,38.3,36.7,30.10,NE,45,0.0,0.0,94,0.00,CLR,,0.02,WeatherDisplay:10.37,2013-01-12 14:20:00,
2013-01-12 09:25:00,38.7,37.1,30.10,NW,315,0.0,0.0,94,0.00,CLR,,0.02,WeatherDisplay:10.37,2013-01-12 14:25:00,
2013-01-12 09:30:00,38.8,37.2,30.11,NE,45,0.0,0.0,94,0.00,CLR,,0.02,WeatherDisplay:10.37,2013-01-12 14:30:00,
2013-01-12 09:35:00,38.7,37.1,30.11,NE,44,0.0,0.0,94,0.00,CLR,,0.02,WeatherDisplay:10.37,2013-01-12 14:35:00,
2013-01-12 09:40:00,38.8,37.2,30.10,NW,315,0.0,0.0,94,0.00,CLR,,0.02,WeatherDisplay:10.37,2013-01-12 14:40:00,
2013-01-12 09:45:00,39.1,37.5,30.10,NNE,21,0.0,0.0,94,0.00,CLR,,0.02,WeatherDisplay:10.37,2013-01-12 14:45:00,
2013-01-12 09:50:00,39.4,37.8,30.10,NE,45,0.0,0.0,94,0.00,CLR,,0.02,WeatherDisplay:10.37,2013-01-12 14:50:00,
2013-01-12 09:55:00,39.6,38.0,30.10,NNE,22,0.0,0.0,94,0.00,CLR,,0.02,WeatherDisplay:10.37,2013-01-12 14:55:00,
2013-01-12 10:00:00,39.7,38.1,30.10,NE,49,0.0,0.0,94,0.00,CLR,,0.02,WeatherDisplay:10.37,2013-01-12 15:00:00,
2013-01-12 10:05:00,39.9,38.3,30.10,NE,48,0.0,0.0,94,0.00,CLR,,0.02,WeatherDisplay:10.37,2013-01-12 15:05:00,
2013-01-12 10:10:00,39.7,38.1,30.10,NE,45,0.0,0.0,94,0.00,CLR,,0.02,WeatherDisplay:10.37,2013-01-12 15:10:00,
2013-01-12 10:15:00,39.7,38.1,30.10,NNW,338,0.0,0.0,94,0.00,CLR,,0.02,WeatherDisplay:10.37,2013-01-12 15:15:00,
2013-01-12 10:20:00,39.9,38.3,30.10,NNE,22,0.0,0.0,94,0.00,CLR,,0.02,WeatherDisplay:10.37,2013-01-12 15:20:00,
2013-01-12 10:25:00,39.7,38.1,30.10,NNW,331,0.0,0.0,94,0.00,CLR,,0.02,WeatherDisplay:10.37,2013-01-12 15:25:00,
2013-01-12 10:30:00,39.7,38.1,30.10,NW,315,0.0,0.0,94,0.00,CLR,,0.02,WeatherDisplay:10.37,2013-01-12 15:30:00,
2013-01-12 10:35:00,39.7,38.1,30.10,NW,315,0.0,0.0,94,0.00,CLR,,0.02,WeatherDisplay:10.37,2013-01-12 15:35:00,
2013-01-12 10:40:00,39.7,38.1,30.09,NNE,22,0.0,0.0,94,0.00,CLR,,0.02,WeatherDisplay:10.37,2013-01-12 15:40:00,
2013-01-12 10:45:00,39.7,38.1,30.09,North,3,0.0,0.0,94,0.00,CLR,,0.02,WeatherDisplay:10.37,2013-01-12 15:45:00,
2013-01-12 10:50:00,39.7,38.1,30.09,WNW,292,0.0,0.0,94,0.00,CLR,,0.02,WeatherDisplay:10.37,2013-01-12 15:50:00,
2013-01-12 10:55:00,39.7,38.1,30.09,North,350,0.0,0.0,94,0.00,CLR,,0.02,WeatherDisplay:10.37,2013-01-12 15:55:00,
2013-01-12 11:00:00,39.9,38.0,30.09,NE,45,0.0,0.0,93,0.00,CLR,,0.02,WeatherDisplay:10.37,2013-01-12 16:00:00,
2013-01-12 11:05:00,40.1,38.2,30.08,ESE,112,2.3,2.3,93,0.00,CLR,,0.02,WeatherDisplay:10.37,2013-01-12 16:05:00,
2013-01-12 11:10:00,40.3,38.4,30.08,ESE,116,2.0,2.0,93,0.00,CLR,,0.02,WeatherDisplay:10.37,2013-01-12 16:10:00,
2013-01-12 11:15:00,40.5,38.6,30.07,SE,135,2.3,2.3,93,0.00,CLR,,0.02,WeatherDisplay:10.37,2013-01-12 16:15:00,
2013-01-12 11:20:00,40.5,38.6,30.07,East,90,1.1,0.0,93,0.00,CLR,,0.02,WeatherDisplay:10.37,2013-01-12 16:20:00,
2013-01-12 11:25:00,40.6,38.5,30.07,ESE,102,0.0,0.0,92,0.00,CLR,,0.02,WeatherDisplay:10.37,2013-01-12 16:25:00,
2013-01-12 11:30:00,40.6,38.5,30.07,SSE,158,3.7,3.7,92,0.00,CLR,,0.02,WeatherDisplay:10.37,2013-01-12 16:30:00,
2013-01-12 11:35:00,40.6,38.5,30.07,ESE,103,3.0,5.0,92,0.00,CLR,,0.02,WeatherDisplay:10.37,2013-01-12 16:35:00,
2013-01-12 11:40:00,40.6,38.5,30.05,SSE,158,2.7,2.7,92,0.00,CLR,,0.02,WeatherDisplay:10.37,2013-01-12 16:40:00,
2013-01-12 11:45:00,41.1,38.7,30.05,SE,124,1.0,4.0,91,0.00,CLR,,0.02,WeatherDisplay:10.37,2013-01-12 16:45:00,
2013-01-12 11:50:00,41.5,38.8,30.05,SE,135,3.7,3.7,90,0.00,CLR,,0.02,WeatherDisplay:10.37,2013-01-12 16:50:00,
2013-01-12 11:55:00,41.7,38.9,30.05,SE,134,2.0,4.0,90,0.00,CLR,,0.02,WeatherDisplay:10.37,2013-01-12 16:55:00,
2013-01-12 12:00:00,41.7,39.0,30.05,ENE,68,3.5,3.5,90,0.00,CLR,,0.02,WeatherDisplay:10.37,2013-01-12 17:00:00,
2013-01-12 12:05:00,41.7,39.0,30.04,ESE,106,2.0,3.0,90,0.00,CLR,,0.02,WeatherDisplay:10.37,2013-01-12 17:05:00,
2013-01-12 12:10:00,41.7,39.0,30.04,ESE,114,2.0,4.0,90,0.00,CLR,,0.02,WeatherDisplay:10.37,2013-01-12 17:10:00,
2013-01-12 12:15:00,41.9,39.2,30.04,SSE,158,0.0,0.0,90,0.00,CLR,,0.02,WeatherDisplay:10.37,2013-01-12 17:15:00,
2013-01-12 12:20:00,42.4,39.7,30.04,South,170,0.0,0.0,90,0.00,CLR,,0.02,WeatherDisplay:10.37,2013-01-12 17:20:00,
2013-01-12 12:25:00,42.6,39.9,30.03,East,90,0.0,0.0,90,0.00,CLR,,0.02,WeatherDisplay:10.37,2013-01-12 17:25:00,
2013-01-12 12:30:00,42.8,39.8,30.03,NW,315,0.0,0.0,89,0.00,CLR,,0.02,WeatherDisplay:10.37,2013-01-12 17:30:00,
2013-01-12 12:35:00,42.6,39.3,30.03,South,180,0.0,0.0,88,0.00,CLR,,0.02,WeatherDisplay:10.37,2013-01-12 17:35:00,
2013-01-12 12:40:00,43.0,39.7,30.04,South,180,2.3,2.3,88,0.00,CLR,,0.02,WeatherDisplay:10.37,2013-01-12 17:40:00,
2013-01-12 12:45:00,43.2,39.9,30.04,West,270,3.5,3.5,88,0.00,CLR,,0.02,WeatherDisplay:10.37,2013-01-12 17:45:00,
2013-01-12 12:50:00,43.2,39.6,30.04,ESE,112,0.0,0.0,87,0.00,CLR,,0.02,WeatherDisplay:10.37,2013-01-12 17:50:00,
2013-01-12 12:55:00,43.0,39.4,30.04,SSE,158,2.3,2.3,87,0.00,CLR,,0.02,WeatherDisplay:10.37,2013-01-12 17:55:00,
2013-01-12 13:00:00,42.8,39.2,30.04,WSW,248,1.1,1.1,87,0.00,CLR,,0.02,WeatherDisplay:10.37,2013-01-12 18:00:00,
2013-01-12 13:05:00,43.0,39.4,30.04,WNW,292,2.3,2.3,87,0.00,CLR,,0.02,WeatherDisplay:10.37,2013-01-12 18:05:00,
2013-01-12 13:10:00,43.0,39.4,30.04,SSE,158,2.3,2.3,87,0.00,CLR,,0.02,WeatherDisplay:10.37,2013-01-12 18:10:00,
2013-01-12 13:15:00,42.8,39.2,30.05,South,180,0.0,0.0,87,0.00,CLR,,0.02,WeatherDisplay:10.37,2013-01-12 18:15:00,
2013-01-12 13:20:00,42.6,39.3,30.05,South,180,0.0,0.0,88,0.00,CLR,,0.02,WeatherDisplay:10.37,2013-01-12 18:20:00,
2013-01-12 13:25:00,43.0,39.7,30.04,NW,315,0.0,0.0,88,0.00,CLR,,0.02,WeatherDisplay:10.37,2013-01-12 18:25:00,
2013-01-12 13:30:00,43.0,39.7,30.04,West,270,0.0,0.0,88,0.00,CLR,,0.02,WeatherDisplay:10.37,2013-01-12 18:30:00,
2013-01-12 13:35:00,43.2,39.9,30.04,SSE,158,0.0,0.0,88,0.00,CLR,,0.02,WeatherDisplay:10.37,2013-01-12 18:35:00,
2013-01-12 13:40:00,43.2,39.9,30.05,West,270,0.0,0.0,88,0.00,CLR,,0.02,WeatherDisplay:10.37,2013-01-12 18:40:00,
2013-01-12 13:45:00,43.0,39.7,30.05,South,180,0.0,0.0,88,0.00,CLR,,0.02,WeatherDisplay:10.37,2013-01-12 18:45:00,
2013-01-12 13:50:00,43.0,39.7,30.06,West,270,2.3,2.3,88,0.00,CLR,,0.02,WeatherDisplay:10.37,2013-01-12 18:50:00,
2013-01-12 13:55:00,42.8,39.5,30.06,WNW,292,0.0,0.0,88,0.00,CLR,,0.02,WeatherDisplay:10.37,2013-01-12 18:55:00,
2013-01-12 14:00:00,42.4,39.1,30.06,West,270,1.1,0.0,88,0.00,CLR,,0.02,WeatherDisplay:10.37,2013-01-12 19:00:00,
2013-01-12 14:05:00,42.6,39.3,30.07,SSE,158,0.0,0.0,88,0.00,CLR,,0.02,WeatherDisplay:10.37,2013-01-12 19:05:00,
2013-01-12 14:10:00,42.6,39.3,30.07,SSE,158,0.0,0.0,88,0.00,CLR,,0.02,WeatherDisplay:10.37,2013-01-12 19:10:00,
2013-01-12 14:15:00,42.6,39.3,30.07,South,180,0.0,0.0,88,0.00,CLR,,0.02,WeatherDisplay:10.37,2013-01-12 19:15:00,
2013-01-12 14:20:00,42.6,39.3,30.07,NE,45,0.0,0.0,88,0.00,CLR,,0.02,WeatherDisplay:10.37,2013-01-12 19:20:00,
2013-01-12 14:25:00,42.3,39.3,30.06,ESE,112,0.0,0.0,89,0.00,CLR,,0.02,WeatherDisplay:10.37,2013-01-12 19:25:00,
2013-01-12 14:30:00,42.3,39.3,30.06,NNE,22,0.0,0.0,89,0.00,CLR,,0.02,WeatherDisplay:10.37,2013-01-12 19:30:00,
2013-01-12 14:35:00,42.4,39.4,30.06,NE,45,0.0,0.0,89,0.00,CLR,,0.02,WeatherDisplay:10.37,2013-01-12 19:35:00,
2013-01-12 14:40:00,42.4,39.4,30.06,ENE,68,0.0,0.0,89,0.00,CLR,,0.02,WeatherDisplay:10.37,2013-01-12 19:40:00,
2013-01-12 14:45:00,42.4,39.4,30.06,SSE,158,0.0,0.0,89,0.00,CLR,,0.02,WeatherDisplay:10.37,2013-01-12 19:45:00,
2013-01-12 14:50:00,42.4,39.4,30.05,ESE,112,0.0,0.0,89,0.00,CLR,,0.02,WeatherDisplay:10.37,2013-01-12 19:50:00,
2013-01-12 14:55:00,42.4,39.4,30.05,East,90,0.0,0.0,89,0.00,CLR,,0.02,WeatherDisplay:10.37,2013-01-12 19:55:00,
2013-01-12 15:00:00,42.4,39.4,30.05,South,180,0.0,0.0,89,0.00,CLR,,0.02,WeatherDisplay:10.37,2013-01-12 20:00:00,
2013-01-12 15:05:00,42.4,39.4,30.06,WSW,248,0.0,0.0,89,0.00,CLR,,0.02,WeatherDisplay:10.37,2013-01-12 20:05:00,
2013-01-12 15:10:00,42.4,39.4,30.06,SSE,158,0.0,0.0,89,0.00,CLR,,0.02,WeatherDisplay:10.37,2013-01-12 20:10:00,
2013-01-12 15:15:00,42.4,39.4,30.06,South,180,0.0,0.0,89,0.00,CLR,,0.02,WeatherDisplay:10.37,2013-01-12 20:15:00,
2013-01-12 15:20:00,42.6,39.9,30.06,SSE,158,0.0,0.0,90,0.00,CLR,,0.02,WeatherDisplay:10.37,2013-01-12 20:20:00,
2013-01-12 15:25:00,42.6,39.9,30.06,WNW,292,0.0,0.0,90,0.00,CLR,,0.02,WeatherDisplay:10.37,2013-01-12 20:25:00,
2013-01-12 15:30:00,42.6,39.9,30.06,SSE,158,0.0,0.0,90,0.00,CLR,,0.02,WeatherDisplay:10.37,2013-01-12 20:30:00,
2013-01-12 15:35:00,42.6,39.9,30.06,West,270,0.0,0.0,90,0.00,CLR,,0.02,WeatherDisplay:10.37,2013-01-12 20:35:00,
2013-01-12 15:40:00,42.6,39.9,30.06,SSE,158,0.0,0.0,90,0.00,CLR,,0.02,WeatherDisplay:10.37,2013-01-12 20:40:00,
2013-01-12 15:45:00,42.4,39.7,30.06,ESE,112,0.0,0.0,90,0.00,CLR,,0.02,WeatherDisplay:10.37,2013-01-12 20:45:00,
2013-01-12 15:50:00,42.3,39.6,30.06,SE,135,0.0,0.0,90,0.00,CLR,,0.02,WeatherDisplay:10.37,2013-01-12 20:50:00,
2013-01-12 15:55:00,42.3,39.6,30.06,SE,135,0.0,0.0,90,0.00,CLR,,0.02,WeatherDisplay:10.37,2013-01-12 20:55:00,
2013-01-12 16:00:00,42.3,39.6,30.06,WSW,248,0.0,0.0,90,0.00,CLR,,0.02,WeatherDisplay:10.37,2013-01-12 21:00:00,
2013-01-12 16:05:00,42.1,39.4,30.06,SE,135,0.0,0.0,90,0.00,CLR,,0.02,WeatherDisplay:10.37,2013-01-12 21:05:00,
2013-01-12 16:10:00,42.1,39.4,30.06,South,180,0.0,0.0,90,0.00,CLR,,0.02,WeatherDisplay:10.37,2013-01-12 21:10:00,
2013-01-12 16:15:00,41.7,39.3,30.05,SSE,158,0.0,0.0,91,0.00,CLR,,0.02,WeatherDisplay:10.37,2013-01-12 21:15:00,
2013-01-12 16:20:00,41.5,39.1,30.05,SSE,158,0.0,0.0,91,0.00,CLR,,0.02,WeatherDisplay:10.37,2013-01-12 21:20:00,
2013-01-12 16:25:00,41.4,39.0,30.05,South,180,0.0,0.0,91,0.00,CLR,,0.02,WeatherDisplay:10.37,2013-01-12 21:25:00,
2013-01-12 16:30:00,41.4,39.3,30.05,East,90,0.0,0.0,92,0.00,CLR,,0.02,WeatherDisplay:10.37,2013-01-12 21:30:00,
2013-01-12 16:35:00,41.4,39.3,30.05,SSE,158,0.0,0.0,92,0.00,CLR,,0.02,WeatherDisplay:10.37,2013-01-12 21:35:00,
2013-01-12 16:40:00,41.4,39.3,30.05,West,270,0.0,0.0,92,0.00,CLR,,0.02,WeatherDisplay:10.37,2013-01-12 21:40:00,
2013-01-12 16:45:00,41.4,39.3,30.05,West,270,0.0,0.0,92,0.00,CLR,,0.02,WeatherDisplay:10.37,2013-01-12 21:45:00,
2013-01-12 16:50:00,41.2,39.1,30.06,South,180,0.0,0.0,92,0.00,CLR,,0.02,WeatherDisplay:10.37,2013-01-12 21:50:00,
2013-01-12 16:55:00,41.2,39.1,30.06,West,270,0.0,0.0,92,0.00,CLR,,0.02,WeatherDisplay:10.37,2013-01-12 21:55:00,
2013-01-12 17:00:00,41.2,39.1,30.06,WNW,292,0.0,0.0,92,0.00,CLR,,0.02,WeatherDisplay:10.37,2013-01-12 22:00:00,
2013-01-12 17:05:00,41.0,38.9,30.06,NNE,22,0.0,0.0,92,0.00,CLR,,0.02,WeatherDisplay:10.37,2013-01-12 22:05:00,
2013-01-12 17:10:00,41.0,38.9,30.06,NW,315,0.0,0.0,92,0.00,CLR,,0.02,WeatherDisplay:10.37,2013-01-12 22:10:00,
2013-01-12 17:15:00,41.0,39.7,30.06,East,90,2.0,2.0,95,0.00,CLR,,0.00,WeatherDisplay:10.37,2013-01-12 22:15:00,
2013-01-12 17:16:00,41.0,38.9,30.05,NW,315,0.0,0.0,92,0.00,CLR,,0.02,WeatherDisplay:10.37,2013-01-12 22:16:00,
2013-01-12 17:20:00,41.0,39.7,30.06,East,90,2.0,0.0,95,0.00,CLR,,0.00,WeatherDisplay:10.37,2013-01-12 22:20:00,
2013-01-12 17:21:00,40.8,38.7,30.05,WNW,292,0.0,0.0,92,0.00,CLR,,0.02,WeatherDisplay:10.37,2013-01-12 22:21:00,
2013-01-12 17:25:00,41.0,39.7,30.06,East,97,0.0,0.0,95,0.00,CLR,,0.00,WeatherDisplay:10.37,2013-01-12 22:25:00,
2013-01-12 17:26:00,40.6,38.5,30.05,NW,315,0.0,0.0,92,0.00,CLR,,0.02,WeatherDisplay:10.37,2013-01-12 22:26:00,
2013-01-12 17:30:00,41.0,39.7,30.06,SE,138,0.0,0.0,95,0.00,CLR,,0.00,WeatherDisplay:10.37,2013-01-12 22:30:00,
2013-01-12 17:31:00,40.6,38.5,30.05,NW,315,0.0,0.0,92,0.00,CLR,,0.02,WeatherDisplay:10.37,2013-01-12 22:31:00,
2013-01-12 17:35:00,41.0,39.7,30.06,South,180,0.0,0.0,95,0.00,CLR,,0.00,WeatherDisplay:10.37,2013-01-12 22:35:00,
2013-01-12 17:36:00,40.5,38.4,30.05,NW,315,0.0,0.0,92,0.00,CLR,,0.02,WeatherDisplay:10.37,2013-01-12 22:36:00,
2013-01-12 17:40:00,40.0,38.7,30.06,South,180,0.0,0.0,95,0.00,CLR,,0.00,WeatherDisplay:10.37,2013-01-12 22:40:00,
2013-01-12 17:41:00,40.3,38.2,30.05,WNW,292,0.0,0.0,92,0.00,CLR,,0.02,WeatherDisplay:10.37,2013-01-12 22:41:00,
2013-01-12 17:45:00,40.0,38.7,30.06,South,180,0.0,0.0,95,0.00,CLR,,0.00,WeatherDisplay:10.37,2013-01-12 22:45:00,
2013-01-12 17:46:00,40.3,38.2,30.05,NW,315,0.0,0.0,92,0.00,CLR,,0.02,WeatherDisplay:10.37,2013-01-12 22:46:00,
2013-01-12 17:50:00,40.0,38.7,30.06,South,173,0.0,0.0,95,0.00,CLR,,0.00,WeatherDisplay:10.37,2013-01-12 22:50:00,
2013-01-12 17:51:00,40.1,38.0,30.06,NW,315,0.0,0.0,92,0.00,CLR,,0.02,WeatherDisplay:10.37,2013-01-12 22:51:00,
2013-01-12 17:55:00,40.0,38.7,30.06,SSE,162,0.0,0.0,95,0.00,CLR,,0.00,WeatherDisplay:10.37,2013-01-12 22:55:00,
2013-01-12 17:56:00,39.9,37.8,30.06,West,270,0.0,0.0,92,0.00,CLR,,0.02,WeatherDisplay:10.37,2013-01-12 22:56:00,
2013-01-12 18:00:00,40.0,38.7,30.06,SSE,154,0.0,0.0,95,0.00,CLR,,0.00,WeatherDisplay:10.37,2013-01-12 23:00:00,
2013-01-12 18:01:00,39.9,37.8,30.06,East,90,0.0,0.0,92,0.00,CLR,,0.02,WeatherDisplay:10.37,2013-01-12 23:01:00,
2013-01-12 18:05:00,40.0,38.7,30.06,SE,130,0.0,0.0,95,0.00,CLR,,0.00,WeatherDisplay:10.37,2013-01-12 23:05:00,
2013-01-12 18:06:00,39.9,37.8,30.05,NW,315,0.0,0.0,92,0.00,CLR,,0.02,WeatherDisplay:10.37,2013-01-12 23:06:00,
2013-01-12 18:10:00,40.0,38.7,30.06,ESE,112,0.0,0.0,95,0.00,CLR,,0.00,WeatherDisplay:10.37,2013-01-12 23:10:00,
2013-01-12 18:11:00,39.9,37.8,30.05,ENE,68,0.0,0.0,92,0.00,CLR,,0.02,WeatherDisplay:10.37,2013-01-12 23:11:00,
2013-01-12 18:15:00,40.0,38.7,30.06,ENE,78,0.0,0.0,95,0.00,CLR,,0.00,WeatherDisplay:10.37,2013-01-12 23:15:00,
2013-01-12 18:16:00,39.9,37.8,30.05,West,270,0.0,0.0,92,0.00,CLR,,0.02,WeatherDisplay:10.37,2013-01-12 23:16:00,
2013-01-12 18:20:00,40.0,38.7,30.06,NNE,28,0.0,0.0,95,0.00,CLR,,0.00,WeatherDisplay:10.37,2013-01-12 23:20:00,
2013-01-12 18:21:00,39.7,37.6,30.05,West,270,0.0,0.0,92,0.00,CLR,,0.02,WeatherDisplay:10.37,2013-01-12 23:21:00,
2013-01-12 18:25:00,39.0,37.7,30.03,NE,39,1.0,0.0,95,0.00,CLR,,0.00,WeatherDisplay:10.37,2013-01-12 23:25:00,
2013-01-12 18:26:00,39.7,37.6,30.05,West,270,0.0,0.0,92,0.00,CLR,,0.02,WeatherDisplay:10.37,2013-01-12 23:26:00,
2013-01-12 18:30:00,39.0,37.7,30.03,East,93,1.0,0.0,95,0.00,CLR,,0.00,WeatherDisplay:10.37,2013-01-12 23:30:00,
2013-01-12 18:31:00,39.7,37.6,30.05,West,270,0.0,0.0,92,0.00,CLR,,0.02,WeatherDisplay:10.37,2013-01-12 23:31:00,
2013-01-12 18:35:00,39.0,37.7,30.03,ESE,112,1.0,0.0,95,0.00,CLR,,0.00,WeatherDisplay:10.37,2013-01-12 23:35:00,
2013-01-12 18:36:00,39.7,37.6,30.05,West,270,0.0,0.0,92,0.00,CLR,,0.02,WeatherDisplay:10.37,2013-01-12 23:36:00,
2013-01-12 18:40:00,40.0,38.7,30.06,ESE,112,0.0,0.0,95,0.00,CLR,,0.00,WeatherDisplay:10.37,2013-01-12 23:40:00,
2013-01-12 18:41:00,39.7,37.6,30.05,NW,315,0.0,0.0,92,0.00,CLR,,0.02,WeatherDisplay:10.37,2013-01-12 23:41:00,
2013-01-12 18:45:00,40.0,38.7,30.06,ESE,112,0.0,0.0,95,0.00,CLR,,0.00,WeatherDisplay:10.37,2013-01-12 23:45:00,
2013-01-12 18:46:00,39.7,37.6,30.05,NNW,338,0.0,0.0,92,0.00,CLR,,0.02,WeatherDisplay:10.37,2013-01-12 23:46:00,
2013-01-12 18:50:00,39.0,37.7,30.06,ESE,105,0.0,0.0,95,0.00,CLR,,0.00,WeatherDisplay:10.37,2013-01-12 23:50:00,
2013-01-12 18:51:00,39.7,37.6,30.05,NE,45,0.0,0.0,92,0.00,CLR,,0.02,WeatherDisplay:10.37,2013-01-12 23:51:00,
2013-01-12 18:55:00,39.0,37.7,30.06,East,94,0.0,0.0,95,0.00,CLR,,0.00,WeatherDisplay:10.37,2013-01-12 23:55:00,
2013-01-12 18:56:00,39.7,37.6,30.05,NE,45,0.0,0.0,92,0.00,CLR,,0.02,WeatherDisplay:10.37,2013-01-12 23:56:00,
2013-01-12 19:00:00,40.0,38.7,30.06,East,90,0.0,0.0,95,0.00,CLR,,0.00,WeatherDisplay:10.37,2013-01-13 00:00:00,
2013-01-12 19:01:00,39.7,37.8,30.05,NW,315,0.0,0.0,93,0.00,CLR,,0.02,WeatherDisplay:10.37,2013-01-13 00:01:00,
2013-01-12 19:05:00,40.0,38.7,30.06,West,270,0.0,0.0,95,0.00,CLR,,0.00,WeatherDisplay:10.37,2013-01-13 00:05:00,
2013-01-12 19:06:00,39.7,37.8,30.04,SSE,158,0.0,0.0,93,0.00,CLR,,0.02,WeatherDisplay:10.37,2013-01-13 00:06:00,
2013-01-12 19:10:00,40.0,38.7,30.06,West,270,0.0,0.0,95,0.00,CLR,,0.00,WeatherDisplay:10.37,2013-01-13 00:10:00,
2013-01-12 19:11:00,39.6,37.7,30.04,SSE,158,0.0,0.0,93,0.00,CLR,,0.02,WeatherDisplay:10.37,2013-01-13 00:11:00,
2013-01-12 19:15:00,40.0,38.7,30.06,WNW,303,0.0,0.0,95,0.00,CLR,,0.00,WeatherDisplay:10.37,2013-01-13 00:15:00,
2013-01-12 19:20:00,40.0,38.7,30.06,ENE,65,0.0,0.0,95,0.00,CLR,,0.00,WeatherDisplay:10.37,2013-01-13 00:20:00,
2013-01-12 19:25:00,40.0,38.7,30.06,NE,54,0.0,0.0,95,0.00,CLR,,0.00,WeatherDisplay:10.37,2013-01-13 00:25:00,
2013-01-12 19:30:00,40.0,38.7,30.06,NNW,340,0.0,0.0,95,0.00,CLR,,0.00,WeatherDisplay:10.37,2013-01-13 00:30:00,
2013-01-12 19:35:00,40.0,38.7,30.06,NW,315,0.0,0.0,95,0.00,CLR,,0.00,WeatherDisplay:10.37,2013-01-13 00:35:00,
2013-01-12 19:40:00,40.0,38.7,30.06,North,349,0.0,0.0,95,0.00,CLR,,0.00,WeatherDisplay:10.37,2013-01-13 00:40:00,
2013-01-12 19:45:00,40.0,38.7,30.06,NNE,22,0.0,0.0,95,0.00,CLR,,0.00,WeatherDisplay:10.37,2013-01-13 00:45:00,
2013-01-12 19:50:00,40.0,38.7,30.06,NNE,22,0.0,0.0,95,0.00,CLR,,0.00,WeatherDisplay:10.37,2013-01-13 00:50:00,
2013-01-12 19:55:00,40.0,38.7,30.06,NNE,22,0.0,0.0,95,0.00,CLR,,0.00,WeatherDisplay:10.37,2013-01-13 00:55:00,
2013-01-12 20:00:00,40.0,38.7,30.06,NNE,28,0.0,0.0,95,0.00,CLR,,0.00,WeatherDisplay:10.37,2013-01-13 01:00:00,
2013-01-12 20:05:00,40.0,38.7,30.06,ENE,78,0.0,0.0,95,0.00,CLR,,0.00,WeatherDisplay:10.37,2013-01-13 01:05:00,
2013-01-12 20:10:00,40.0,38.7,30.06,ESE,112,0.0,0.0,95,0.00,CLR,,0.00,WeatherDisplay:10.37,2013-01-13 01:10:00,
2013-01-12 20:15:00,40.0,38.7,30.06,ESE,112,0.0,0.0,95,0.00,CLR,,0.00,WeatherDisplay:10.37,2013-01-13 01:15:00,
2013-01-12 20:20:00,40.0,38.7,30.06,WNW,292,0.0,0.0,95,0.00,CLR,,0.00,WeatherDisplay:10.37,2013-01-13 01:20:00,
2013-01-12 20:25:00,41.0,39.7,30.09,NW,304,0.0,0.0,95,0.00,CLR,,0.00,WeatherDisplay:10.37,2013-01-13 01:25:00,
2013-01-12 20:30:00,41.0,39.7,30.09,NE,45,0.0,0.0,95,0.00,CLR,,0.00,WeatherDisplay:10.37,2013-01-13 01:30:00,
2013-01-12 20:35:00,41.0,39.7,30.09,ENE,68,0.0,0.0,95,0.00,CLR,,0.00,WeatherDisplay:10.37,2013-01-13 01:35:00,
2013-01-12 20:40:00,41.0,39.7,30.09,North,349,0.0,0.0,95,0.00,CLR,,0.00,WeatherDisplay:10.37,2013-01-13 01:40:00,
2013-01-12 20:45:00,41.0,39.7,30.09,West,270,0.0,0.0,95,0.00,CLR,,0.00,WeatherDisplay:10.37,2013-01-13 01:45:00,
2013-01-12 20:50:00,42.0,40.7,30.09,West,270,2.0,2.0,95,0.00,CLR,,0.00,WeatherDisplay:10.37,2013-01-13 01:50:00,
2013-01-12 20:55:00,42.0,40.7,30.09,West,270,2.0,2.0,95,0.00,CLR,,0.00,WeatherDisplay:10.37,2013-01-13 01:55:00,
2013-01-12 21:00:00,42.0,40.7,30.09,West,273,2.0,2.0,95,0.00,CLR,,0.00,WeatherDisplay:10.37,2013-01-13 02:00:00,
2013-01-12 21:05:00,42.0,40.7,30.09,WNW,295,2.0,2.0,95,0.00,CLR,,0.00,WeatherDisplay:10.37,2013-01-13 02:05:00,
2013-01-12 21:10:00,42.0,40.7,30.09,NW,315,2.0,2.0,95,0.00,CLR,,0.00,WeatherDisplay:10.37,2013-01-13 02:10:00,
2013-01-12 21:15:00,43.0,41.7,30.09,NNE,13,2.0,2.0,95,0.00,CLR,,0.00,WeatherDisplay:10.37,2013-01-13 02:15:00,
2013-01-12 21:20:00,43.0,41.7,30.09,East,86,2.0,0.0,95,0.00,CLR,,0.00,WeatherDisplay:10.37,2013-01-13 02:20:00,
2013-01-12 21:25:00,43.0,41.7,30.09,East,93,0.0,2.0,95,0.00,CLR,,0.00,WeatherDisplay:10.37,2013-01-13 02:25:00,
2013-01-12 21:30:00,43.0,41.7,30.09,South,191,0.0,2.0,95,0.00,CLR,,0.00,WeatherDisplay:10.37,2013-01-13 02:30:00,
2013-01-12 21:35:00,43.0,41.7,30.09,WSW,248,0.0,2.0,95,0.00,CLR,,0.00,WeatherDisplay:10.37,2013-01-13 02:35:00,
2013-01-12 21:40:00,44.0,42.7,30.09,SW,229,0.0,2.0,95,0.00,CLR,,0.00,WeatherDisplay:10.37,2013-01-13 02:40:00,
2013-01-12 21:45:00,44.0,42.7,30.09,ESE,112,0.0,2.0,95,0.00,CLR,,0.00,WeatherDisplay:10.37,2013-01-13 02:45:00,
2013-01-12 21:50:00,45.0,43.7,30.09,WSW,248,2.0,2.0,95,0.00,CLR,,0.00,WeatherDisplay:10.37,2013-01-13 02:50:00,
2013-01-12 21:55:00,45.0,43.7,30.09,West,269,2.0,2.0,95,0.00,CLR,,0.00,WeatherDisplay:10.37,2013-01-13 02:55:00,
2013-01-12 22:00:00,45.0,43.7,30.09,West,280,2.0,3.0,95,0.00,CLR,,0.00,WeatherDisplay:10.37,2013-01-13 03:00:00,
2013-01-12 22:05:00,45.0,43.7,30.09,North,356,2.0,3.0,95,0.00,CLR,,0.00,WeatherDisplay:10.37,2013-01-13 03:05:00,
2013-01-12 22:10:00,45.0,43.7,30.09,NNE,22,2.0,3.0,95,0.00,CLR,,0.00,WeatherDisplay:10.37,2013-01-13 03:10:00,
2013-01-12 22:15:00,45.0,42.8,30.09,NE,46,2.0,3.0,92,0.00,CLR,,0.00,WeatherDisplay:10.37,2013-01-13 03:15:00,
2013-01-12 22:20:00,45.0,42.8,30.09,South,177,2.0,2.0,92,0.00,CLR,,0.00,WeatherDisplay:10.37,2013-01-13 03:20:00,
2013-01-12 22:25:00,46.0,43.5,30.09,SSW,197,3.0,3.0,91,0.00,CLR,,0.00,WeatherDisplay:10.37,2013-01-13 03:25:00,
2013-01-12 22:30:00,46.0,43.5,30.09,WSW,251,3.0,3.0,91,0.00,CLR,,0.00,WeatherDisplay:10.37,2013-01-13 03:30:00,
2013-01-12 22:35:00,46.0,43.5,30.09,West,270,3.0,3.0,91,0.00,CLR,,0.00,WeatherDisplay:10.37,2013-01-13 03:35:00,
2013-01-12 22:40:00,46.0,43.2,30.09,West,270,1.0,2.0,90,0.00,CLR,,0.00,WeatherDisplay:10.37,2013-01-13 03:40:00,
2013-01-12 22:45:00,46.0,43.2,30.09,West,270,1.0,2.0,90,0.00,CLR,,0.00,WeatherDisplay:10.37,2013-01-13 03:45:00,
2013-01-12 22:50:00,46.0,42.9,30.06,NW,313,2.0,2.0,89,0.00,CLR,,0.00,WeatherDisplay:10.37,2013-01-13 03:50:00,
2013-01-12 22:55:00,46.0,42.9,30.06,NE,38,2.0,2.0,89,0.00,CLR,,0.00,WeatherDisplay:10.37,2013-01-13 03:55:00,
2013-01-12 23:00:00,46.0,42.9,30.06,NE,47,2.0,2.0,89,0.00,CLR,,0.00,WeatherDisplay:10.37,2013-01-13 04:00:00,
2013-01-12 23:05:00,46.0,42.9,30.06,ENE,58,2.0,0.0,89,0.00,CLR,,0.00,WeatherDisplay:10.37,2013-01-13 04:05:00,
2013-01-12 23:10:00,46.0,42.9,30.06,ENE,68,2.0,0.0,89,0.00,CLR,,0.00,WeatherDisplay:10.37,2013-01-13 04:10:00,
2013-01-12 23:15:00,47.0,43.9,30.06,ENE,68,0.0,0.0,89,0.00,CLR,,0.00,WeatherDisplay:10.37,2013-01-13 04:15:00,
2013-01-12 23:20:00,47.0,43.9,30.06,ENE,68,0.0,0.0,89,0.00,CLR,,0.00,WeatherDisplay:10.37,2013-01-13 04:20:00,
2013-01-12 23:25:00,46.0,42.9,30.06,ENE,77,1.0,0.0,89,0.00,CLR,,0.00,WeatherDisplay:10.37,2013-01-13 04:25:00,
2013-01-12 23:30:00,46.0,42.9,30.06,SE,124,1.0,0.0,89,0.00,CLR,,0.00,WeatherDisplay:10.37,2013-01-13 04:30:00,
2013-01-12 23:35:00,46.0,42.9,30.06,SSE,158,1.0,0.0,89,0.00,CLR,,0.00,WeatherDisplay:10.37,2013-01-13 04:35:00,
2013-01-12 23:40:00,47.0,43.9,30.06,WSW,253,2.0,2.0,89,0.00,CLR,,0.00,WeatherDisplay:10.37,2013-01-13 04:40:00,
2013-01-12 23:45:00,47.0,43.9,30.06,West,270,2.0,2.0,89,0.00,CLR,,0.00,WeatherDisplay:10.37,2013-01-13 04:45:00,
2013-01-12 23:50:00,47.0,43.9,30.06,WSW,257,1.0,2.0,89,0.00,CLR,,0.00,WeatherDisplay:10.37,2013-01-13 04:50:00,
2013-01-12 23:55:00,47.0,43.9,30.06,South,186,1.0,0.0,89,0.00,CLR,,0.00,WeatherDisplay:10.37,2013-01-13 04:55:00,